Location: Eenumerhoogte
(53.3420°N, 6.7843°E)
Time: 19:42:26
(UTC+00:00)

ALOS 2 - Pass Details

Date: 15 May 2026
Orbit: 630 x 632 km, 97.9° (Epoch: 7 June)

Event Time Altitude Azimuth Distance (km) Brightness Sun altitude
Exits shadow 22:54:04 34° 173° (S) 1,042 3.1 -17.2°
Maximum altitude 22:55:57 80° 256° (WSW) 649 2.6 -17.3°
Drops below altitude 10° 23:00:22 10° 344° (NNW) 2,027 6.5 -17.3°
Sets 23:02:35 0° 345° (NNW) 2,939 7.7 -17.4°
